Location: Unspecified
(0.0000°N, 0.0000°E)
Time: 22:31:01
(UTC+00:00)

Tiros 1 - Visible Passes

Search period start: 29 April 2025 00:00
Search period end: 09 May 2025 00:00
Orbit: 619 x 652 km, 48.4° (Epoch: 28 April)

Date Brightness Start Highest point End Pass type
(mag) Time Alt. Az. Time Alt. Az. Time Alt. Az.
04 May 9.4 19:59:41 10° SW 20:00:31 15° SW 20:00:31 15° SW visible
05 May 8.3 18:41:19 10° S 18:44:45 21° SE 18:46:36 17° E visible
05 May 9.5 20:22:35 10° WSW 20:24:12 19° W 20:24:12 19° W visible
06 May 7.0 19:02:29 10° SSW 19:07:00 65° SE 19:10:56 14° NE visible
07 May 8.5 19:25:01 10° WSW 19:29:14 38° NW 19:33:29 10° NNE visible
08 May 10.1 19:49:30 10° WNW 19:51:32 13° NW 19:53:33 10° NNW visible
